Weather in Oktyabr'skiy

Russia / Volgograd Oblast     48°39′20″N   43°48′03″E
temp.,
°C
wind,
m/s
gust,
m/s
humid.,
%
clouds,
%
prec.,
mm/h
press.,
hPa
HPBL,
m
25 february, thu
thu2500:00−14sw116195 0.0 1040197
03:00−14ssw246696 0.0 1039302
06:00−13sw3571100 0.0 1038374
09:00−11ssw576597 0.0 1036414
12:00−9ssw6855100 0.0 1034517
15:00−7sw71156100 0.0 1031560
18:00−7sw61171100 0.0 1029595
21:00−7sw81476100 0.1 1026451
26 february, fri
fri2600:00−5sw81392100 0.3 1023420
03:00−3wsw71394100 0.4 1021422
06:00−1w51196100 0.4 1020337
09:000w61196100 0.6 1020353
12:00+2w51097100 0.2 1019352
15:00+3w51197100 0.5 1019369
18:00+3wsw61196100 0.1 1018284
21:00+2wsw61296100 0.1 1017320
27 february, sat
sat2700:00+3wsw71495100 0.0 1015442
03:00+3wsw71394100 0.1 1014436
06:00+3wsw71394100 0.2 1012424
09:00+3w61295100 0.3 1011477
12:00+4w71184100 0.0 1010914
15:00+4w61281100 0.0 1010774
18:00+2w51190100 0.1 1010501
21:00+2w51090100 0.1 1011311
28 february, sun
sun2800:00+1w51093100 0.1 1010413
03:00+1w5993100 0.1 1010337
06:000w4991100 0.0 1010377
09:00+2wnw478395 0.0 1011649
12:00+3nw467597 0.1 1012827
15:00+1nnw568199 0.1 1013503
18:00−2nnw477746 0.0 1015302
21:00−3n467840 0.0 1018636
1 march, mon
mon100:00−5n577398 0.0 1019660
03:00−5nnw577299 0.0 1021648
06:00−5nnw467497 0.0 1022674
09:00−5nnw467099 0.0 1024739
12:00−3nnw5559100 0.0 1026856
15:00−2nnw565999 0.0 1026898
18:00−4nnw476787 0.0 1027805
21:00−5nnw466984 0.0 1029735